Location: Plainartige
(45.6866°N, 1.7993°E)
Time: 14:34:18
(UTC+00:00)

USA 308 - Pass Details

Date: 03 March 2021
Orbit: 568 x 576 km, 54.0° (Epoch: 15 April)

Event Time Altitude Azimuth Distance (km) Brightness Sun altitude
Rises 18:25:33 0° 276° (W) 2,776 8.7 -8.3°
Reaches altitude 10° 18:28:03 10° 288° (WNW) 1,877 6.9 -8.7°
Maximum altitude 18:31:48 29° 349° (N) 1,060 4.4 -9.4°
Drops below altitude 10° 18:35:33 10° 51° (NE) 1,876 5.1 -10.1°
Enters shadow 18:35:59 - 54° (NE) 2,024 5.2 -10.1°
